EZS87YG LFQQ-LSGG

Flight info

Callsign EZS87YG
Flight time 0h 55m
Altitude 19000
Route MATIX6K MATIX Y50 REM B3 VATRI T11 SOMDA A6 DJL DJL2N
Aircraft A320/M-SDE3FGHIRWY/LB1

Departure

Time 2026-04-17 07:36
Airport Lille Airport (LFQQ)

Arrival

Time 2026-04-17 08:32
Airport Geneva International Airport (LSGG)
Time Latitude Longitude Altitude Speed Heading
2026-04-17 07:22 50.57101 3.10602 158 ft 0 kts 13°
2026-04-17 07:30 50.57091 3.10598 158 ft 2 kts 13°
2026-04-17 07:30 50.57075 3.10592 158 ft 2 kts 17°
2026-04-17 07:30 50.57058 3.10584 158 ft 2 kts 17°
2026-04-17 07:30 50.57042 3.10575 158 ft 2 kts 39°
2026-04-17 07:31 50.57029 3.10558 158 ft 2 kts 39°
2026-04-17 07:31 50.57019 3.10538 158 ft 2 kts 94°
2026-04-17 07:31 50.57019 3.10532 158 ft 0 kts 94°
2026-04-17 07:32 50.57019 3.10533 158 ft 1 kts 94°
2026-04-17 07:33 50.57021 3.10577 158 ft 7 kts 81°
2026-04-17 07:33 50.57030 3.10646 158 ft 6 kts 79°
2026-04-17 07:33 50.56980 3.10702 157 ft 15 kts 167°
2026-04-17 07:33 50.56871 3.10744 160 ft 17 kts 157°
2026-04-17 07:34 50.56858 3.10913 160 ft 19 kts 76°
2026-04-17 07:34 50.56889 3.11130 161 ft 21 kts 78°
2026-04-17 07:34 50.56922 3.11362 165 ft 21 kts 78°
2026-04-17 07:34 50.56940 3.11535 164 ft 12 kts 98°
2026-04-17 07:35 50.56871 3.11611 168 ft 14 kts 171°
2026-04-17 07:35 50.56778 3.11634 172 ft 13 kts 186°
2026-04-17 07:35 50.56754 3.11574 173 ft 0 kts 257°
2026-04-17 07:35 50.56749 3.11537 173 ft 18 kts 257°
2026-04-17 07:36 50.56654 3.10872 162 ft 102 kts 257°
2026-04-17 07:36 50.56447 3.09456 175 ft 159 kts 255°
2026-04-17 07:36 50.56209 3.07697 729 ft 168 kts 252°
2026-04-17 07:36 50.55579 3.06173 1329 ft 178 kts 212°
2026-04-17 07:37 50.54373 3.05320 1718 ft 203 kts 202°
2026-04-17 07:37 50.52969 3.04482 2265 ft 229 kts 194°
2026-04-17 07:37 50.51332 3.04714 2961 ft 251 kts 156°
2026-04-17 07:37 50.49999 3.06540 3928 ft 262 kts 128°
2026-04-17 07:38 50.49050 3.09013 5006 ft 266 kts 118°
2026-04-17 07:38 50.48240 3.11664 5997 ft 272 kts 116°
2026-04-17 07:38 50.47424 3.14399 6895 ft 280 kts 117°
2026-04-17 07:38 50.46552 3.17161 7826 ft 285 kts 120°
2026-04-17 07:39 50.45542 3.19843 8762 ft 286 kts 130°
2026-04-17 07:39 50.44323 3.22330 9744 ft 289 kts 131°
2026-04-17 07:39 50.43100 3.24808 10549 ft 297 kts 131°
2026-04-17 07:39 50.41780 3.27466 10899 ft 321 kts 131°
2026-04-17 07:40 50.40361 3.30321 11296 ft 341 kts 131°
2026-04-17 07:40 50.38893 3.33291 11992 ft 348 kts 131°
2026-04-17 07:40 50.37378 3.36360 12770 ft 354 kts 131°
2026-04-17 07:40 50.35860 3.39434 13531 ft 359 kts 130°
2026-04-17 07:41 50.34338 3.42511 14250 ft 364 kts 130°
2026-04-17 07:41 50.32774 3.45662 14946 ft 369 kts 131°
2026-04-17 07:41 50.31170 3.48890 15649 ft 373 kts 131°
2026-04-17 07:41 50.29587 3.52069 16336 ft 377 kts 131°
2026-04-17 07:42 50.27964 3.55316 17019 ft 381 kts 131°
2026-04-17 07:42 50.26323 3.58594 17701 ft 385 kts 131°
2026-04-17 07:42 50.24667 3.61906 18368 ft 389 kts 131°
2026-04-17 07:42 50.22990 3.65258 18943 ft 393 kts 131°
2026-04-17 07:43 50.21299 3.68629 19167 ft 395 kts 131°
2026-04-17 07:43 50.19589 3.72034 19229 ft 404 kts 130°
2026-04-17 07:43 50.17837 3.75518 19235 ft 409 kts 130°
2026-04-17 07:43 50.16078 3.79014 19244 ft 411 kts 130°
2026-04-17 07:44 50.14311 3.82525 19237 ft 411 kts 130°
2026-04-17 07:44 50.12470 3.85917 19232 ft 409 kts 138°
2026-04-17 07:44 50.10287 3.88716 19246 ft 405 kts 149°
2026-04-17 07:44 50.07828 3.90794 19247 ft 401 kts 160°
2026-04-17 07:45 50.05180 3.92085 19247 ft 397 kts 171°
2026-04-17 07:45 50.02452 3.92662 19245 ft 395 kts 176°
2026-04-17 07:45 49.99712 3.93118 19241 ft 396 kts 176°
2026-04-17 07:45 49.96972 3.93579 19239 ft 396 kts 176°
2026-04-17 07:46 49.94234 3.94046 19235 ft 396 kts 176°
2026-04-17 07:46 49.91493 3.94515 19243 ft 396 kts 176°
2026-04-17 07:46 49.88760 3.94982 19233 ft 396 kts 176°
2026-04-17 07:46 49.86018 3.95444 19234 ft 396 kts 176°
2026-04-17 07:47 49.83280 3.95896 19226 ft 396 kts 176°
2026-04-17 07:47 49.80538 3.96343 19240 ft 396 kts 176°
2026-04-17 07:47 49.77799 3.96795 19242 ft 396 kts 176°
2026-04-17 07:47 49.75057 3.97255 19243 ft 396 kts 176°
2026-04-17 07:48 49.72349 3.97712 19242 ft 396 kts 176°
2026-04-17 07:48 49.69609 3.98176 19246 ft 397 kts 176°
2026-04-17 07:48 49.66828 3.98644 19240 ft 397 kts 176°
2026-04-17 07:48 49.64083 3.99102 19242 ft 397 kts 176°
2026-04-17 07:49 49.61372 3.99550 19242 ft 397 kts 176°
2026-04-17 07:49 49.58586 4.00014 19245 ft 397 kts 176°
2026-04-17 07:49 49.55871 4.00466 19246 ft 398 kts 176°
2026-04-17 07:49 49.53123 4.00922 19246 ft 398 kts 176°
2026-04-17 07:50 49.50373 4.01378 19244 ft 398 kts 176°
2026-04-17 07:50 49.47614 4.01832 19246 ft 398 kts 176°
2026-04-17 07:50 49.44859 4.02285 19240 ft 397 kts 176°
2026-04-17 07:50 49.42112 4.02741 19240 ft 397 kts 176°
2026-04-17 07:51 49.39357 4.03199 19241 ft 398 kts 176°
2026-04-17 07:51 49.36602 4.03659 19241 ft 398 kts 176°
2026-04-17 07:51 49.33853 4.04111 19242 ft 398 kts 176°
2026-04-17 07:51 49.31100 4.04527 19241 ft 397 kts 179°
2026-04-17 07:52 49.28337 4.04604 19242 ft 396 kts 181°
2026-04-17 07:52 49.25583 4.04652 19239 ft 396 kts 181°
2026-04-17 07:52 49.22825 4.04707 19226 ft 396 kts 181°
2026-04-17 07:52 49.20072 4.04767 19237 ft 396 kts 181°
2026-04-17 07:53 49.18240 4.04809 19238 ft 396 kts 181°
2026-04-17 07:53 49.14590 4.04893 19239 ft 396 kts 181°
2026-04-17 07:53 49.12724 4.04935 19240 ft 396 kts 181°
2026-04-17 07:53 49.09970 4.05002 19240 ft 396 kts 181°
2026-04-17 07:54 49.06314 4.05100 19242 ft 396 kts 181°
2026-04-17 07:54 49.03557 4.05176 19241 ft 396 kts 181°
2026-04-17 07:54 49.01693 4.05228 19241 ft 396 kts 181°
2026-04-17 07:54 48.98933 4.05302 19235 ft 396 kts 181°
2026-04-17 07:55 48.96180 4.05371 19234 ft 396 kts 181°
2026-04-17 07:55 48.93416 4.05440 19236 ft 396 kts 181°
2026-04-17 07:55 48.90658 4.05509 19237 ft 396 kts 181°
2026-04-17 07:55 48.87902 4.05584 19238 ft 396 kts 181°
2026-04-17 07:56 48.85183 4.05663 19239 ft 396 kts 181°
2026-04-17 07:56 48.82391 4.05742 19241 ft 396 kts 181°
2026-04-17 07:56 48.79667 4.05938 19242 ft 398 kts 175°
2026-04-17 07:56 48.76947 4.06795 19244 ft 400 kts 167°
2026-04-17 07:57 48.74229 4.07926 19246 ft 401 kts 167°
2026-04-17 07:57 48.71575 4.09025 19248 ft 401 kts 167°
2026-04-17 07:57 48.68882 4.10137 19249 ft 401 kts 167°
2026-04-17 07:57 48.66188 4.11243 19250 ft 401 kts 167°
2026-04-17 07:58 48.63494 4.12342 19250 ft 401 kts 167°
2026-04-17 07:58 48.60807 4.13439 19248 ft 401 kts 167°
2026-04-17 07:58 48.58109 4.14543 19247 ft 400 kts 167°
2026-04-17 07:58 48.55420 4.15642 19239 ft 400 kts 167°
2026-04-17 07:59 48.52731 4.16737 19237 ft 400 kts 167°
2026-04-17 07:59 48.50038 4.17832 19236 ft 400 kts 167°
2026-04-17 07:59 48.47349 4.18927 19237 ft 401 kts 167°
2026-04-17 07:59 48.44657 4.20021 19239 ft 401 kts 167°
2026-04-17 08:00 48.41963 4.21114 19241 ft 401 kts 167°
2026-04-17 08:00 48.39272 4.22203 19241 ft 401 kts 167°
2026-04-17 08:00 48.36573 4.23295 19243 ft 401 kts 167°
2026-04-17 08:00 48.33908 4.24515 19230 ft 403 kts 161°
2026-04-17 08:01 48.31374 4.26349 19232 ft 405 kts 154°
2026-04-17 08:01 48.28898 4.28346 19237 ft 405 kts 154°
2026-04-17 08:01 48.26407 4.30341 19233 ft 405 kts 154°
2026-04-17 08:01 48.23918 4.32327 19233 ft 405 kts 154°
2026-04-17 08:02 48.21423 4.34313 19232 ft 405 kts 154°
2026-04-17 08:02 48.18938 4.36290 19230 ft 405 kts 154°
2026-04-17 08:02 48.16443 4.38270 19230 ft 405 kts 154°
2026-04-17 08:02 48.13953 4.40247 19217 ft 406 kts 154°
2026-04-17 08:03 48.11460 4.42238 19217 ft 406 kts 154°
2026-04-17 08:03 48.08977 4.44253 19217 ft 406 kts 153°
2026-04-17 08:03 48.06494 4.46282 19217 ft 406 kts 153°
2026-04-17 08:03 48.04017 4.48308 19219 ft 406 kts 153°
2026-04-17 08:04 48.01538 4.50332 19223 ft 406 kts 153°
2026-04-17 08:04 47.99052 4.52351 19226 ft 406 kts 154°
2026-04-17 08:04 47.96564 4.54363 19227 ft 406 kts 154°
2026-04-17 08:04 47.94110 4.56347 19227 ft 406 kts 154°
2026-04-17 08:05 47.91593 4.58379 19217 ft 406 kts 154°
2026-04-17 08:05 47.89143 4.60358 19214 ft 406 kts 154°
2026-04-17 08:05 47.86660 4.62363 19214 ft 406 kts 154°
2026-04-17 08:05 47.84167 4.64368 19212 ft 406 kts 154°
2026-04-17 08:06 47.81679 4.66362 19215 ft 406 kts 154°
2026-04-17 08:06 47.79189 4.68359 19217 ft 406 kts 154°
2026-04-17 08:06 47.76701 4.70353 19214 ft 406 kts 154°
2026-04-17 08:06 47.74210 4.72348 19216 ft 407 kts 154°
2026-04-17 08:07 47.71716 4.74344 19211 ft 407 kts 154°
2026-04-17 08:07 47.69222 4.76343 19203 ft 407 kts 153°
2026-04-17 08:07 47.66734 4.78335 19206 ft 407 kts 153°
2026-04-17 08:07 47.64234 4.80334 19209 ft 408 kts 154°
2026-04-17 08:08 47.61737 4.82325 19215 ft 408 kts 154°
2026-04-17 08:08 47.59238 4.84316 19218 ft 408 kts 154°
2026-04-17 08:08 47.56740 4.86302 19216 ft 408 kts 154°
2026-04-17 08:08 47.54245 4.88285 19217 ft 408 kts 154°
2026-04-17 08:09 47.51742 4.90271 19212 ft 408 kts 154°
2026-04-17 08:09 47.49246 4.92247 19214 ft 408 kts 154°
2026-04-17 08:09 47.46741 4.94228 19210 ft 408 kts 154°
2026-04-17 08:09 47.44244 4.96200 19212 ft 408 kts 154°
2026-04-17 08:10 47.41741 4.98175 19212 ft 408 kts 154°
2026-04-17 08:10 47.39232 5.00156 19213 ft 408 kts 154°
2026-04-17 08:10 47.36725 5.02133 19214 ft 408 kts 154°
2026-04-17 08:10 47.34222 5.04104 19215 ft 408 kts 154°
2026-04-17 08:11 47.31716 5.06073 19217 ft 408 kts 154°
2026-04-17 08:11 47.29211 5.08042 19218 ft 408 kts 154°
2026-04-17 08:11 47.26765 5.10063 19212 ft 409 kts 148°
2026-04-17 08:11 47.24400 5.12499 19214 ft 410 kts 146°
2026-04-17 08:12 47.22104 5.14894 19215 ft 409 kts 146°
2026-04-17 08:12 47.19778 5.17318 19215 ft 409 kts 146°
2026-04-17 08:12 47.17452 5.19738 19214 ft 409 kts 146°
2026-04-17 08:12 47.15129 5.22146 19215 ft 409 kts 146°
2026-04-17 08:13 47.12798 5.24553 19216 ft 410 kts 146°
2026-04-17 08:13 47.10459 5.26966 19218 ft 410 kts 146°
2026-04-17 08:13 47.08123 5.29376 19220 ft 410 kts 146°
2026-04-17 08:14 47.03460 5.34179 19214 ft 410 kts 146°
2026-04-17 08:14 47.01123 5.36586 19213 ft 410 kts 146°
2026-04-17 08:14 46.98792 5.38987 19214 ft 410 kts 146°
2026-04-17 08:14 46.96452 5.41392 19216 ft 410 kts 146°
2026-04-17 08:15 46.94116 5.43787 19215 ft 410 kts 146°
2026-04-17 08:15 46.91780 5.46175 19214 ft 410 kts 146°
2026-04-17 08:15 46.89441 5.48568 19214 ft 410 kts 146°
2026-04-17 08:15 46.87101 5.50962 19214 ft 410 kts 146°
2026-04-17 08:16 46.84761 5.53356 19214 ft 410 kts 146°
2026-04-17 08:16 46.82421 5.55746 19211 ft 410 kts 146°
2026-04-17 08:16 46.80079 5.58137 19211 ft 410 kts 146°
2026-04-17 08:16 46.77745 5.60519 19216 ft 410 kts 146°
2026-04-17 08:17 46.75435 5.62872 19212 ft 410 kts 146°
2026-04-17 08:17 46.73089 5.65251 19212 ft 410 kts 147°
2026-04-17 08:17 46.70746 5.67621 19212 ft 410 kts 147°
2026-04-17 08:17 46.68401 5.69993 19207 ft 410 kts 146°
2026-04-17 08:18 46.66026 5.72396 19211 ft 410 kts 146°
2026-04-17 08:18 46.63712 5.74735 19211 ft 411 kts 146°
2026-04-17 08:18 46.61357 5.77113 19214 ft 411 kts 146°
2026-04-17 08:18 46.59011 5.79483 19212 ft 411 kts 146°
2026-04-17 08:19 46.56663 5.81856 19214 ft 411 kts 146°
2026-04-17 08:19 46.54317 5.84222 19215 ft 411 kts 146°
2026-04-17 08:19 46.51971 5.86584 19034 ft 409 kts 146°
2026-04-17 08:19 46.49620 5.88948 18288 ft 410 kts 146°
2026-04-17 08:20 46.47294 5.91287 17687 ft 405 kts 146°
2026-04-17 08:20 46.44987 5.93605 17114 ft 401 kts 146°
2026-04-17 08:20 46.42703 5.95894 16536 ft 398 kts 146°
2026-04-17 08:20 46.40462 5.98132 16362 ft 384 kts 146°
2026-04-17 08:21 46.38299 6.00288 16236 ft 370 kts 147°
2026-04-17 08:21 46.36031 6.01837 16111 ft 354 kts 168°
2026-04-17 08:21 46.33641 6.02043 15985 ft 338 kts 190°
2026-04-17 08:21 46.31465 6.01007 15819 ft 324 kts 211°
2026-04-17 08:22 46.29727 5.99042 15266 ft 314 kts 227°
2026-04-17 08:22 46.28198 5.96801 14607 ft 312 kts 227°
2026-04-17 08:22 46.26681 5.94568 13993 ft 310 kts 227°
2026-04-17 08:22 46.25177 5.92357 13353 ft 306 kts 226°
2026-04-17 08:23 46.23678 5.90159 12933 ft 306 kts 226°
2026-04-17 08:23 46.22204 5.88011 12420 ft 299 kts 226°
2026-04-17 08:23 46.20745 5.85888 11803 ft 296 kts 226°
2026-04-17 08:23 46.19307 5.83795 11321 ft 291 kts 226°
2026-04-17 08:24 46.17889 5.81732 10855 ft 289 kts 226°
2026-04-17 08:24 46.16465 5.79661 10384 ft 292 kts 226°
2026-04-17 08:24 46.15061 5.77623 10100 ft 288 kts 226°
2026-04-17 08:24 46.13666 5.75599 9497 ft 282 kts 225°
2026-04-17 08:25 46.12329 5.73669 9324 ft 261 kts 225°
2026-04-17 08:25 46.10948 5.72073 9017 ft 252 kts 205°
2026-04-17 08:25 46.09263 5.71621 8868 ft 249 kts 175°
2026-04-17 08:25 46.07620 5.72440 8378 ft 259 kts 142°
2026-04-17 08:26 46.06319 5.74208 7803 ft 257 kts 136°
2026-04-17 08:26 46.05055 5.76008 7341 ft 251 kts 136°
2026-04-17 08:26 46.03882 5.77755 7137 ft 233 kts 127°
2026-04-17 08:26 46.03392 5.79873 7013 ft 225 kts 87°
2026-04-17 08:27 46.03943 5.81956 6692 ft 230 kts 51°
2026-04-17 08:27 46.05071 5.83639 6298 ft 237 kts 44°
2026-04-17 08:27 46.06261 5.85304 5993 ft 237 kts 45°
2026-04-17 08:27 46.07421 5.86973 5696 ft 236 kts 45°
2026-04-17 08:28 46.08574 5.88649 5407 ft 235 kts 45°
2026-04-17 08:28 46.09723 5.90321 5086 ft 234 kts 45°
2026-04-17 08:28 46.10864 5.91982 4779 ft 231 kts 45°
2026-04-17 08:28 46.11976 5.93601 4465 ft 223 kts 45°
2026-04-17 08:29 46.13041 5.95155 4174 ft 214 kts 45°
2026-04-17 08:29 46.14059 5.96639 3899 ft 207 kts 45°
2026-04-17 08:29 46.15054 5.98091 3662 ft 201 kts 45°
2026-04-17 08:29 46.16027 5.99510 3374 ft 196 kts 45°
2026-04-17 08:30 46.16971 6.00890 3107 ft 190 kts 45°
2026-04-17 08:30 46.17854 6.02180 2866 ft 171 kts 45°
2026-04-17 08:30 46.18652 6.03347 2645 ft 155 kts 45°
2026-04-17 08:30 46.19377 6.04407 2426 ft 142 kts 45°
2026-04-17 08:31 46.20052 6.05396 2228 ft 137 kts 45°
2026-04-17 08:31 46.20710 6.06366 2024 ft 134 kts 46°
2026-04-17 08:31 46.21355 6.07325 1848 ft 133 kts 46°
2026-04-17 08:31 46.22011 6.08267 1677 ft 133 kts 45°
2026-04-17 08:32 46.22664 6.09206 1498 ft 132 kts 46°
2026-04-17 08:32 46.23287 6.10128 1405 ft 119 kts 46°
2026-04-17 08:32 46.23699 6.10740 1380 ft 42 kts 45°
2026-04-17 08:32 46.23840 6.10944 1380 ft 22 kts 45°
2026-04-17 08:33 46.23835 6.11072 1378 ft 17 kts 158°
2026-04-17 08:33 46.23742 6.11092 1384 ft 11 kts 179°
2026-04-17 08:33 46.23684 6.11050 1385 ft 11 kts 226°
2026-04-17 08:33 46.23610 6.10939 1389 ft 19 kts 226°
2026-04-17 08:34 46.23511 6.10794 1388 ft 21 kts 225°
2026-04-17 08:34 46.23401 6.10635 1403 ft 22 kts 220°
2026-04-17 08:34 46.23290 6.10482 1397 ft 23 kts 225°
2026-04-17 08:34 46.23182 6.10324 1402 ft 20 kts 225°
2026-04-17 08:35 46.23086 6.10172 1397 ft 19 kts 226°
2026-04-17 08:35 46.22995 6.10038 1397 ft 19 kts 225°
2026-04-17 08:35 46.22922 6.09931 1402 ft 12 kts 225°
2026-04-17 08:35 46.22881 6.09872 1401 ft 4 kts 214°
2026-04-17 08:36 46.22853 6.09896 1401 ft 7 kts 135°
2026-04-17 08:36 46.22830 6.09930 1398 ft 7 kts 135°
2026-04-17 08:36 46.22801 6.09971 1398 ft 3 kts 135°
2026-04-17 08:36 46.22797 6.09976 1399 ft 0 kts 135°